This demonstration page uses our WeatherBlox Daily Observations layout. Learn more.

36.17497, -115.13722

Hourly Observations for June 3, 2015

Temp ( °F °C ) Dew Point ( °F °C ) Humidity (%) Winds ( mph kmh ) Pressure ( in mb ) Visibility ( mi km ) Precip ( " mm )
12:53 am 00:53 Clear 81 27.2 27 -2.8 14 14 WSW 5 7 29.72 1007 10 16.0934 0 0
1:53 am 01:53 Clear 79 26.1 31 -0.6 17 17 WSW 9 15 29.72 1007 10 16.0934 0 0
2:53 am 02:53 Clear 77 25 27 -2.8 16 16 NW 5 7 29.72 1007 10 16.0934 0 0
3:53 am 03:53 Clear 73 22.8 27 -2.8 18 18 Calm 29.73 1007 10 16.0934 0 0
4:53 am 04:53 Clear 71 21.7 29 -1.7 21 21 NW 3 6 29.73 1007 10 16.0934 0 0
5:53 am 05:53 Sunny 70 21.1 30 -1.1 23 23 Calm 29.75 1008 10 16.0934 0 0
6:53 am 06:53 Sunny 71 21.7 33 0.6 25 25 N 3 6 29.76 1008 10 16.0934 0 0
7:53 am 07:53 Sunny 75 23.9 34 1.1 22 22 Calm 29.77 1008 10 16.0934 0 0
8:53 am 08:53 Sunny 78 25.6 37 2.8 23 23 E 3 6 29.77 1008 10 16.0934 0 0
9:53 am 09:53 Sunny 81 27.2 36 2.2 20 20 VRB 6 9 29.75 1008 10 16.0934 0 0
10:53 am 10:53 Sunny 86 30 29 -1.7 13 13 S 8 13 29.75 1007 10 16.0934 0 0
11:53 am 11:53 Sunny 87 30.6 29 -1.7 12 12 S 9 15 29.75 1007 10 16.0934 0 0
12:53 pm 12:53 Sunny 88 31.1 27 -2.8 11 11 SSW 8 13 29.73 1007 10 16.0934 0 0
1:53 pm 13:53 Sunny 90 32.2 24 -4.4 9 9 SE 10 17 29.7 1006 10 16.0934 0 0
2:53 pm 14:53 Sunny 91 32.8 19 -7.2 7 7 SW 13 20 29.68 1005 10 16.0934 0 0
3:07 pm 15:07 Sunny 92 33.3 18 -7.8 6 6 SSE 8 13 29.53 1000 10 16.0934 0 0
3:53 pm 15:53 Sunny 92 33.3 20 -6.7 7 7 S 14 22 29.65 1004 10 16.0934 0 0
4:53 pm 16:53 Sunny 91 32.8 25 -3.9 9 9 S 8 13 29.65 1004 10 16.0934 0 0
5:53 pm 17:53 Sunny 91 32.8 25 -3.9 9 9 SSW 14 22 29.64 1004 10 16.0934 0 0
6:53 pm 18:53 Sunny 89 31.7 26 -3.3 10 10 SW 10 17 29.65 1004 10 16.0934 0 0
7:53 pm 19:53 Sunny 87 30.6 29 -1.7 12 12 SSW 13 20 29.65 1004 10 16.0934 0 0
8:53 pm 20:53 Clear 86 30 27 -2.8 12 12 SSW 15 24 29.65 1004 10 16.0934 0 0
9:53 pm 21:53 Clear 84 28.9 28 -2.2 13 13 SSW 10 17 29.67 1005 10 16.0934 0 0
10:53 pm 22:53 Clear 82 27.8 29 -1.7 14 14 S 8 13 29.66 1005 10 16.0934 0 0
11:53 pm 23:53 Clear 81 27.2 31 -0.6 16 16 SSW 12 19 29.66 1005 10 16.0934 0 0

Powered by AerisWeather